Starlink 4135

operational
NORAD ID: 53248 Int'l Des: 2022-086 Owner: SPXS Country: US Constellation: starlink
LEOCIRCULAR

About Starlink 4135

Description loading...

Live Position

Loading 3D Globe...

Upcoming Passes

Altitude History

Altitude vs Time

uPlot chart will show altitude changes over time

Two-Line Element Set

1 53248U 22086G 25303.74431750 -.00000033 00000-0 16024-4 0 9998
2 53248 53.2176 62.5713 0001495 102.9321 257.1838 15.08839386181699
Epoch: Oct 30, 2025 • Age: 10 hours

Current Status

Altitude 540.0 km
Velocity 7.60 km/s
Sub-Earth Point 25.15°N, 119.69°E
Launch Date Jul 24, 2022
Age 3.2 years
Type internet

Technical Details

Classification Payload
Mass 297.00 kg
Dry Mass 275.00 kg
Total Mass 297.00 kg
Length 0.20 m
Diameter 2.80 m
Span 9.00 m
Shape Box + pan
Manufacturer SPXS
Bus Type Starlink
Phase Status In Orbit
Owner/State SPXS/US

Large Constellations

Loading constellations...